TimeCDT,TemperatureF,Dew PointF,Humidity,Sea Level PressureIn,VisibilityMPH,Wind Direction,Wind SpeedMPH,Gust SpeedMPH,PrecipitationIn,Events,Conditions,WindDirDegrees,DateUTC
12:15 AM,66.6,59.0,77,29.89,10.0,West,9.2,-,N/A,,Clear,280,2013-09-15 05:15:00
12:35 AM,66.2,59.2,78,29.88,10.0,SW,5.8,-,N/A,,Scattered Clouds,230,2013-09-15 05:35:00
12:55 AM,67.1,59.0,75,29.90,10.0,NW,16.1,-,N/A,,Mostly Cloudy,320,2013-09-15 05:55:00
1:15 AM,65.3,57.4,76,29.90,10.0,NNW,10.4,-,N/A,,Clear,340,2013-09-15 06:15:00
1:35 AM,64.0,57.2,78,29.91,10.0,NNW,9.2,-,N/A,,Scattered Clouds,330,2013-09-15 06:35:00
1:55 AM,63.1,57.2,81,29.92,10.0,NNW,9.2,-,N/A,,Scattered Clouds,330,2013-09-15 06:55:00
2:15 AM,62.8,57.2,82,29.92,10.0,NNW,11.5,-,N/A,,Mostly Cloudy,340,2013-09-15 07:15:00
2:35 AM,63.5,57.7,81,29.93,10.0,North,10.4,-,N/A,,Overcast,350,2013-09-15 07:35:00
2:55 AM,63.5,57.9,82,29.95,10.0,NNW,8.1,-,N/A,,Overcast,330,2013-09-15 07:55:00
3:15 AM,63.5,58.1,83,29.95,10.0,NNW,10.4,-,N/A,,Overcast,340,2013-09-15 08:15:00
3:35 AM,63.5,58.1,83,29.95,10.0,North,13.8,-,N/A,,Overcast,350,2013-09-15 08:35:00
3:55 AM,62.6,57.4,83,29.96,10.0,North,18.4,23.0,N/A,,Overcast,350,2013-09-15 08:55:00
4:15 AM,61.3,56.7,85,29.97,10.0,NNW,17.3,24.2,N/A,,Overcast,340,2013-09-15 09:15:00
4:35 AM,61.3,55.8,82,29.98,10.0,North,15.0,23.0,N/A,,Overcast,350,2013-09-15 09:35:00
4:55 AM,61.0,54.7,80,29.99,10.0,North,13.8,23.0,N/A,,Overcast,350,2013-09-15 09:55:00
5:15 AM,61.3,54.9,79,30.00,10.0,NNW,15.0,21.9,N/A,,Overcast,340,2013-09-15 10:15:00
5:35 AM,60.8,55.2,82,30.01,10.0,NNW,19.6,23.0,N/A,,Overcast,340,2013-09-15 10:35:00
5:55 AM,60.8,55.4,82,30.01,10.0,NNW,16.1,20.7,N/A,,Overcast,340,2013-09-15 10:55:00
6:15 AM,60.4,55.4,83,30.01,10.0,North,17.3,23.0,N/A,,Overcast,350,2013-09-15 11:15:00
6:35 AM,60.4,55.4,83,30.02,10.0,North,17.3,23.0,N/A,,Overcast,360,2013-09-15 11:35:00
6:55 AM,59.9,54.0,81,30.04,10.0,North,18.4,26.5,N/A,,Overcast,350,2013-09-15 11:55:00
7:15 AM,59.4,53.6,81,30.05,10.0,North,17.3,25.3,N/A,,Overcast,360,2013-09-15 12:15:00
7:35 AM,59.4,53.6,81,30.07,10.0,North,13.8,18.4,N/A,,Overcast,360,2013-09-15 12:35:00
7:55 AM,59.4,53.8,82,30.08,10.0,North,12.7,-,N/A,,Overcast,360,2013-09-15 12:55:00
8:15 AM,59.0,53.8,83,30.09,7.0,North,16.1,23.0,N/A,,Overcast,10,2013-09-15 13:15:00
8:35 AM,59.5,53.1,79,30.09,10.0,North,15.0,23.0,N/A,,Overcast,10,2013-09-15 13:35:00
8:55 AM,59.7,53.2,79,30.10,10.0,North,13.8,19.6,N/A,,Overcast,10,2013-09-15 13:55:00
9:15 AM,59.4,53.6,81,30.11,10.0,North,15.0,18.4,N/A,,Overcast,360,2013-09-15 14:15:00
9:35 AM,59.9,52.9,78,30.12,10.0,North,10.4,-,N/A,,Overcast,10,2013-09-15 14:35:00
9:55 AM,60.3,52.7,76,30.13,10.0,North,15.0,-,N/A,,Overcast,10,2013-09-15 14:55:00
10:15 AM,60.3,51.8,74,30.14,10.0,NNE,15.0,21.9,N/A,,Overcast,20,2013-09-15 15:15:00
10:35 AM,61.5,52.0,71,30.15,10.0,NNE,13.8,18.4,N/A,,Overcast,20,2013-09-15 15:35:00
10:55 AM,62.4,51.8,68,30.16,10.0,North,16.1,19.6,N/A,,Overcast,10,2013-09-15 15:55:00
11:15 AM,62.4,52.5,70,30.16,10.0,NNE,13.8,19.6,N/A,,Mostly Cloudy,20,2013-09-15 16:15:00
11:35 AM,64.0,52.3,66,30.17,10.0,North,15.0,21.9,N/A,,Mostly Cloudy,360,2013-09-15 16:35:00
11:55 AM,64.0,51.8,64,30.17,10.0,NNE,18.4,-,N/A,,Mostly Cloudy,20,2013-09-15 16:55:00
12:15 PM,68.0,52.7,58,30.17,10.0,NNE,19.6,23.0,N/A,,Mostly Cloudy,20,2013-09-15 17:15:00
12:35 PM,66.7,52.5,60,30.17,10.0,NNE,18.4,23.0,N/A,,Mostly Cloudy,20,2013-09-15 17:35:00
12:55 PM,67.5,52.3,58,30.18,10.0,NNE,15.0,23.0,N/A,,Scattered Clouds,20,2013-09-15 17:55:00
1:15 PM,66.7,52.0,59,30.18,10.0,NNE,16.1,20.7,N/A,,Mostly Cloudy,20,2013-09-15 18:15:00
1:35 PM,68.0,52.5,58,30.19,10.0,North,13.8,21.9,N/A,,Mostly Cloudy,10,2013-09-15 18:35:00
1:55 PM,67.8,52.3,58,30.19,10.0,NNE,17.3,21.9,N/A,,Mostly Cloudy,20,2013-09-15 18:55:00
2:15 PM,68.5,52.0,55,30.19,10.0,NNE,16.1,21.9,N/A,,Mostly Cloudy,30,2013-09-15 19:15:00
2:35 PM,68.2,51.3,55,30.19,10.0,NNE,11.5,20.7,N/A,,Mostly Cloudy,20,2013-09-15 19:35:00
2:55 PM,69.3,52.0,54,30.21,10.0,NNE,10.4,20.7,N/A,,Mostly Cloudy,30,2013-09-15 19:55:00
3:15 PM,68.0,52.3,57,30.21,10.0,NNE,13.8,21.9,N/A,,Mostly Cloudy,20,2013-09-15 20:15:00
3:35 PM,67.1,52.2,59,30.21,10.0,NNE,17.3,20.7,N/A,,Overcast,20,2013-09-15 20:35:00
3:55 PM,66.4,52.0,60,30.21,10.0,NNE,15.0,24.2,N/A,,Overcast,20,2013-09-15 20:55:00
4:15 PM,66.9,51.6,58,30.21,10.0,NE,15.0,19.6,N/A,,Overcast,40,2013-09-15 21:15:00
4:35 PM,66.7,51.3,57,30.22,10.0,NNE,15.0,20.7,N/A,,Mostly Cloudy,20,2013-09-15 21:35:00
4:55 PM,65.5,52.0,62,30.23,10.0,NE,10.4,-,N/A,,Overcast,40,2013-09-15 21:55:00
5:15 PM,64.6,53.4,67,30.23,10.0,North,10.4,16.1,N/A,,Overcast,10,2013-09-15 22:15:00
5:35 PM,64.4,52.9,66,30.24,10.0,NNE,9.2,-,N/A,,Overcast,30,2013-09-15 22:35:00
5:55 PM,64.4,52.5,65,30.24,10.0,NNE,11.5,-,N/A,,Overcast,20,2013-09-15 22:55:00
6:15 PM,64.4,51.8,64,30.24,10.0,NNE,11.5,-,N/A,,Overcast,30,2013-09-15 23:15:00
6:35 PM,63.7,51.8,65,30.24,10.0,NNE,11.5,16.1,N/A,,Overcast,30,2013-09-15 23:35:00
6:55 PM,63.5,52.0,66,30.25,10.0,NNE,9.2,-,N/A,,Overcast,20,2013-09-15 23:55:00
7:15 PM,63.1,51.8,66,30.25,10.0,NNE,12.7,17.3,N/A,,Overcast,30,2013-09-16 00:15:00
7:35 PM,62.6,51.8,68,30.25,10.0,NNE,8.1,-,N/A,,Overcast,30,2013-09-16 00:35:00
7:55 PM,62.6,50.9,66,30.25,10.0,NE,10.4,-,N/A,,Overcast,40,2013-09-16 00:55:00
8:15 PM,61.7,52.9,73,30.26,10.0,North,4.6,-,N/A,,Overcast,10,2013-09-16 01:15:00
8:35 PM,61.3,53.6,76,30.27,10.0,North,5.8,-,N/A,,Overcast,10,2013-09-16 01:35:00
8:55 PM,61.2,53.6,76,30.28,10.0,Calm,Calm,-,N/A,,Overcast,0,2013-09-16 01:55:00
9:15 PM,61.2,53.8,77,30.28,10.0,NNE,4.6,-,N/A,,Overcast,20,2013-09-16 02:15:00
9:35 PM,61.0,53.8,77,30.28,10.0,NNE,4.6,-,N/A,,Overcast,20,2013-09-16 02:35:00
9:55 PM,61.2,53.6,76,30.29,10.0,NE,5.8,-,N/A,,Overcast,40,2013-09-16 02:55:00
10:15 PM,61.2,53.2,75,30.29,10.0,ENE,8.1,-,N/A,,Overcast,60,2013-09-16 03:15:00
10:35 PM,60.8,52.5,74,30.29,10.0,ENE,9.2,-,N/A,,Overcast,70,2013-09-16 03:35:00
10:55 PM,60.3,52.2,75,30.30,10.0,ENE,5.8,-,N/A,,Overcast,70,2013-09-16 03:55:00
11:15 PM,59.9,52.9,78,30.31,10.0,East,4.6,-,N/A,,Overcast,80,2013-09-16 04:15:00
11:35 PM,59.5,52.3,77,30.31,10.0,East,4.6,-,N/A,,Overcast,90,2013-09-16 04:35:00
11:55 PM,59.2,52.0,77,30.31,10.0,East,4.6,-,N/A,,Overcast,100,2013-09-16 04:55:00